Location: Dzierzno
(50.6159°N, 19.2852°E)
Time: 00:29:54
(UTC+00:00)

Cosmos 2151 Rocket - Pass Details

Date: 18 November 2025
Orbit: 612 x 635 km, 82.5° (Epoch: 05 December)

Event Time Altitude Azimuth Distance (km) Brightness Sun altitude
Rises 16:17:02 0° 166° (SSE) 2,918 7.0 -13.2°
Reaches altitude 10° 16:19:22 10° 158° (SSE) 2,017 6.1 -13.5°
Maximum altitude 16:23:29 37° 91° (E) 996 4.1 -14.2°
Drops below altitude 10° 16:27:38 10° 25° (NNE) 2,035 5.9 -14.8°
Enters shadow 16:27:46 - 24° (NNE) 2,086 5.9 -14.8°
